Regional Weather Roundup
Issued by NWS San Angelo, TX

Home | Current Version | Previous Version | Text Only | Print | Product List | Glossary On
Versions: 1 2 3 4 5 6 7 8 9 10 11 12 13 14 15 16 17 18 19 20 21 22 23 24 25 26 27 28 29 30 31 32 33 34 35 36 37 38 39 40 41 42 43 44 45 46 47 48 49 50
000
ASUS44 KSJT 301502
RWRSJT
WEST CENTRAL TEXAS REGIONAL WEATHER ROUNDUP
NATIONAL WEATHER SERVICE SAN ANGELO TX
1000 AM CDT SAT MAY 30 2015

NOTE: "FAIR" INDICATES FEW OR NO CLOUDS BELOW 12,000 FEET WITH NO
SIGNIFICANT WEATHER AND/OR OBSTRUCTIONS TO VISIBILITY.

TXZ049-054-064>066-071>073-076>078-098-099-113-114-127-128-139-140-
154-155-168>170-301600
...LOCATIONS ACROSS WEST CENTRAL TEXAS...

CITY           SKY/WX    TMP DP  RH WIND       PRES   REMARKS
SAN ANGELO     MOSUNNY   70  60  70 N13       30.17R
ABILENE        MOSUNNY   70  62  76 NW16      30.16R
DYESS AFB      PTSUNNY   69  60  72 NW10      30.16R
JUNCTION       MOSUNNY   72  62  71 NE6       30.12S
SWEETWATER     NOT AVBL
BROWNWOOD      NOT AVBL
COLEMAN        NOT AVBL
SONORA         NOT AVBL
OZONA          NOT AVBL
BRADY          NOT AVBL
$$

TEXAS PANHANDLE/OKLAHOMA PANHANDLE

CITY           SKY/WX    TMP DP  RH WIND       PRES   REMARKS
AMARILLO       CLOUDY    58  49  72 N17G24    30.30S
BORGER         CLOUDY    57  48  72 N15       30.30R
CANADIAN       CLOUDY    56  51  84 N10G18    30.27R
DALHART        CLOUDY    55  48  77 NE13      30.33R
DUMAS          CLOUDY    54  47  78 NE12      30.31S
GUYMON         NOT AVBL
HEREFORD       NOT AVBL
PAMPA          NOT AVBL
PERRYTON       NOT AVBL
$$

SOUTHERN PANHANDLE/SOUTH PLAINS/ROLLING PLAINS

CITY           SKY/WX    TMP DP  RH WIND       PRES   REMARKS
LUBBOCK        CLOUDY    62  55  77 NE20G25   30.23R
SNYDER         NOT AVBL
CHILDRESS      PTSUNNY   64  54  69 N22       30.21R
SEMINOLE       NOT AVBL
$$

PERMIAN BASIN

CITY           SKY/WX    TMP DP  RH WIND       PRES   REMARKS
MIDLAND        CLOUDY    61  58  90 SE15      30.14F
ODESSA         CLOUDY    62  55  77 SE10      30.15F
WINK           CLOUDY    66  58  75 W12       30.19R
$$

FAR WEST/SOUTHWEST MOUNTAINS/TRANS PECOS

CITY           SKY/WX    TMP DP  RH WIND       PRES   REMARKS
ALPINE         NOT AVBL
DRYDEN           N/A     64  59  83 N15G26    30.18R
EL PASO        PTSUNNY   74  50  42 NE15      30.17R
FORT STOCKTON  CLOUDY    59  57  93 E20G26    30.18F
GUADALUPE PASS SUNNY     63  49  60 NE32      30.27R
MARFA          MOSUNNY   63  48  59 NE31      30.29F
PECOS          NOT AVBL
$$

DALLAS/FORT WORTH METROPLEX

CITY           SKY/WX    TMP DP  RH WIND       PRES   REMARKS
DFW AIRPORT    CLOUDY    66  65  96 NE12      30.02F
FTW MEACHAM      N/A    N/A N/A N/A MISG      30.02S
DAL-EXECUTIVE  CLOUDY    67  65  93 NE12      30.01F
GRAND PRAIRIE  SUNNY     68  68 100 NE14      30.03F
ADDISON        CLOUDY    68  64  88 NE12G17   30.03F
MESQUITE       CLOUDY    66  66 100 NE10      30.03F
LANCASTER      CLOUDY    66  64  92 E10       30.03F
$$

NORTH CENTRAL TEXAS

CITY           SKY/WX    TMP DP  RH WIND       PRES   REMARKS
SHRMAN/DENISON LGT RAIN  67  67 100 CALM      30.08F
GAINESVILLE    LGT RAIN  69  67  93 CALM      30.09R
BRIDGEPORT     DRIZZLE   67  67 100 CALM      30.10R
DENTON         LGT RAIN  68  67  96 N8        30.04F
WAXAHACHIE     CLOUDY    67  67 100 NE9       30.04S
GRANBURY       NOT AVBL
$$

WESTERN NORTH TEXAS

CITY           SKY/WX    TMP DP  RH WIND       PRES   REMARKS
WICHITA FALLS  LGT RAIN  63  61  93 N9        30.14S
VERNON         NOT AVBL
BRECKENRIDGE   NOT AVBL
COMANCHE       CLOUDY    69  66  90 N8        30.10R
$$

CENTRAL AND SOUTH CENTRAL TEXAS

CITY           SKY/WX    TMP DP  RH WIND       PRES   REMARKS
AUSTIN/BERGSTM CLOUDY    77  69  76 E12       30.02F
WACO           PTSUNNY   69  65  86 NE10      30.04S
HILLSBORO      NOT AVBL
TEMPLE         PTSUNNY   72  61  68 E3        30.03R
KILLEEN-GRAY   PTSUNNY   71  64  79 NW7       30.07R
FORT HOOD      PTSUNNY   72  65  79 N8        30.06R
GEORGETOWN     NOT AVBL
LAGO VISTA     FAIR      72  64  76 CALM      30.07R
SAN MARCOS     PTSUNNY   79  66  65 E8        30.05F
NEW BRAUNFELS  MOSUNNY   80  69  69 SE8       30.05S
RANDOLPH AFB   NOT AVBL
SAN ANTONIO    PTSUNNY   80  70  71 E7        30.07S
STINSON        MOSUNNY   78  72  81 SE7       30.04F
PLEASANTON     NOT AVBL
LA GRANGE      NOT AVBL
GIDDINGS       NOT AVBL
$$

EAST TEXAS

CITY           SKY/WX    TMP DP  RH WIND       PRES   REMARKS
PARIS          CLOUDY    68  63  83 W8        30.08R
CLARKSVILLE    NOT AVBL
TYLER          TSTM      67  32  27 N12       30.10R
LONGVIEW       TSTM      71  68  90 W9        30.08R
PALESTINE      CLOUDY    67  66  96 NW6       30.08F
NACOGDOCHES    CLOUDY   N/A N/A N/A NW26G33   30.09R
$$

TEXAS HILL COUNTRY AND EDWARDS PLATEAU

CITY           SKY/WX    TMP DP  RH WIND       PRES   REMARKS
LLANO          NOT AVBL
HORSESHOE BAY  NOT AVBL
KERRVILLE      SUNNY     74  64  69 CALM      30.11R
FREDERICKSBRG  NOT AVBL
ROCKSPRINGS    NOT AVBL
HONDO          SUNNY     77  71  82 E6        30.08S
UVALDE         NOT AVBL
DEL RIO        LGT RAIN  74  66  76 NE9       30.04F
$$

SOUTHEAST TEXAS

CITY           SKY/WX    TMP DP  RH WIND       PRES   REMARKS
COLLEGE STN    PTSUNNY   77  71  82 N8        30.07F
CALDWELL       NOT AVBL
CROCKETT       NOT AVBL
BRENHAM        PTSUNNY   79  74  86 NW7       30.08S
HUNTSVILLE     LGT RAIN  76  73  91 NW6       30.08R
CONROE         PTSUNNY   80  72  76 SW8       30.07R
HOUSTON BUSH   PTSUNNY   82  73  74 VRB5      30.06R
HOUSTON HOBBY  PTSUNNY   82  72  71 W5        30.05R
PERLAND        PTSUNNY   82  72  71 CALM      30.07R
WHARTON        NOT AVBL
$$

THE UPPER TEXAS COAST

CITY           SKY/WX    TMP DP  RH WIND       PRES   REMARKS
ORANGE         CLOUDY    81  73  75 S5        30.06S
PORT ARTHUR    MOSUNNY   83  72  69 SW5       30.04S
GALVESTON      MOSUNNY   83  76  79 S8        30.05R
ANGLETON       MOSUNNY   81  74  79 SE5       30.05R
BAY CITY       NOT AVBL
$$

TEXAS COASTAL BEND, RIO GRANDE PLAINS DEEP SOUTH TEXAS

CITY           SKY/WX    TMP DP  RH WIND       PRES   REMARKS
VICTORIA       MOSUNNY   80  76  87 N3        30.05S
BEEVILLE       PTSUNNY   77  77 100 NE5       30.05R
ROCKPORT       SUNNY     84  73  69 E3        30.01R
PORT ARANSAS   NOT AVBL
PORT LAVACA    SUNNY     81  74  78 NW5       30.05R
CORPUS CHRISTI PTSUNNY   83  74  74 SE8       30.00S
KINGSVILLE NAS MOSUNNY   83  78  85 SE8       30.00S
COTULLA        PTSUNNY   81  72  74 E10       30.04S
LAREDO         CLOUDY    79  72  79 S6        30.04R
BROWNSVILLE    PTSUNNY   83  75  77 E9        29.99S
PORT ISABEL    CLOUDY    83  75  77 E12       29.98S
HEBBRONVILLE   NOT AVBL
MCALLEN        MOSUNNY   85  76  74 SE12      29.99S
WESLACO        NOT AVBL
FALFURRIAS     PTSUNNY   81  74  77 SE5       30.00R
EDINBURG       NOT AVBL
$$



USA.gov is the U.S. government's official web portal to all federal, state and local government web resources and services.